Hourly Data Report for February 17, 2020

TORONTO CITY
ONTARIO
Current Station Operator: ECCC - MSC

43°40'00.000" N
79°24'00.000" W
112.50 m
6158355
71508
XTO

Download Data

Hourly Data (February 2020)
Hourly Data Report for February 17, 2020
TIME
LST
Temp Definition
°C
Dew Point Definition
°C
Rel Hum Definition
%
Precip. Amount Definition
mm

Wind Dir Definition
10's deg

Wind Spd Definition
km/h
Visibility Definition
km
Stn Press Definition
kPa
Hmdx Definition


Wind Chill Definition


Weather Definition


00:00 -1.3 -6.4 68 0.0       100.61     LegendNANA
01:00 -1.5 -6.6 68 0.0       100.68     LegendNANA
02:00 -1.8 -7.3 66 0.0       100.74     LegendNANA
03:00 -2.2 -7.5 67 0.0       100.76     LegendNANA
04:00 -3.0 -7.8 69 0.0       100.83     LegendNANA
05:00 -3.6 -8.5 68 0.0       100.93     LegendNANA
06:00 -3.7 -8.6 69 0.0       101.00     LegendNANA
07:00 -4.0 -8.9 69 0.0       101.09     LegendNANA
08:00 -3.8 -8.8 69 0.0       101.15     LegendNANA
09:00 -3.2 -10.6 56 0.0       101.24     LegendNANA
10:00 -2.2 -11.7 48 0.0       101.28     LegendNANA
11:00 -1.9 -11.6 47 0.0       101.35     LegendNANA
12:00 -0.5 -11.0 45 0.3       101.35     LegendNANA
13:00 -1.1 -11.4 45 0.3       101.30     LegendNANA
14:00 -0.2 -9.9 48 0.4       101.29     LegendNANA
15:00 -1.3 -9.0 56 0.0       101.26     LegendNANA
16:00 -1.6 -8.9 58 0.0       101.22     LegendNANA
17:00 -1.4 -8.4 59 0.0       101.19     LegendNANA
18:00 -1.8 -7.5 65 0.0       101.19     LegendNANA
19:00 -1.5 -6.7 68 0.0       101.19     LegendNANA
20:00 -1.3 -5.7 72 0.0       101.16     LegendNANA
21:00 -0.8 -5.0 73 0.0       101.11     LegendNANA
22:00 -0.6 -4.9 73 0.0       101.06     LegendNANA
23:00 -0.2 -4.6 72 0.0       100.97     LegendNANA

Notes on Data Quality.

Legend

  • E = Estimated
  • M = Missing
  • NA = Not Available*
  • [empty] = Indicates an unobserved value
Date modified: